Вернуться в каталог

OPS 7613 (P/L 5) DEB

АктивенLEO
NORAD 43191·DEBRIS·🇺🇸 United States

Запущен Sep 30, 1969 с Vandenberg Space Force Base

Loading…

Ближайшие Пролёты (ближайшие 24 часа)

TLE

СвежийSource: Space-Track

Эпоха: Sep 14, 2026, 00:37 UTC

1 43191U 69082LJ  26257.02616993  .00000062  00000-0  82881-4 0  9990
2 43191  70.0125 271.1088 0020092   4.0052 356.1211 13.96449954461055

Отслеживайте OPS 7613 (P/L 5) DEB в реальном времени с AllMySat

Download on the App Store